Starlink 31394

operational
NORAD ID: 59185 Int'l Des: 2024-045 Owner: SPXS Country: US Constellation: starlink
LEOCIRCULAR

About Starlink 31394

Description loading...

Live Position

Loading 3D Globe...

Upcoming Passes

Altitude History

Altitude vs Time

uPlot chart will show altitude changes over time

Two-Line Element Set

1 59185U 24045H 25296.84054244 .00008396 00000-0 31410-3 0 9996
2 59185 42.9988 134.8907 0001374 283.7080 76.3619 15.27598658 92352
Epoch: Oct 23, 2025 • Age: 10 hours

Current Status

Altitude 486.2 km
Velocity 7.63 km/s
Sub-Earth Point 39.12°N, 128.31°E
Launch Date Mar 11, 2024
Age 1.6 years
Type internet

Technical Details

Classification Payload
Mass 730.00 kg
Dry Mass 700.00 kg
Total Mass 730.00 kg
Length 0.30 m
Diameter 4.10 m
Span 29.00 m
Shape Box + pan
Manufacturer SPXS
Bus Type Starlink V2M
Phase Status In Orbit
Owner/State SPXS/US

Large Constellations

Loading constellations...